#timestamp,LO_Frequency,Hit,StdDev 
1620558015.8,286047001.0,N
1620558035.6,286047000.5,N
1620558055.5,286046998.8,N
1620558075.3,286046998.4,N
1620558095.2,286046999.2,N
1620558115.0,286046999.2,N
1620558115.9,286046999.2,N
1620558135.7,286046998.3,N
1620558155.6,286046998.2,N
1620558175.4,286046998.8,N
1620558195.3,286046997.9,N
1620558215.1,286046997.9,N
1620558216.0,286046997.9,N
1620558235.8,286046997.9,N
1620558255.7,286046997.3,N
1620558275.5,286046997.1,N
1620558295.4,286046998.4,N
1620558315.2,286047000.9,N
1620558335.0,286047000.8,N
1620558335.9,286047000.8,N
1620558355.8,286046999.4,N
1620558375.6,286046998.7,N
1620558395.4,286046996.5,N
1620558415.3,286046997.0,N
1620558435.1,286046998.7,N
1620558455.9,286046998.4,N
1620558475.7,286046997.0,N
1620558495.5,286046999.5,N
1620558515.4,286046996.5,N
1620558535.2,286046998.8,N
1620558555.1,286046999.3,N
1620558556.0,286046999.3,N
1620558575.8,286046999.1,N
1620558595.6,286046998.8,N
1620558615.5,286046996.5,Y
1620558635.3,286047000.9,P
1620558655.1,286046998.2,N
1620558675.9,286046999.0,N
1620558695.7,286046996.5,Y
1620558715.6,286046998.4,P
1620558735.4,286046998.8,P
1620558755.2,286046999.3,N
1620558775.1,286046998.4,Y
1620558776.0,286046998.4,P
1620558795.8,286046998.2,P
1620558815.7,286047000.9,N
1620558835.5,286047000.8,N
1620558855.3,286046998.6,N
1620558875.2,286046998.9,N
1620558895.0,286047000.8,N
1620558895.9,286047000.8,N
1620558915.8,286047000.5,N
1620558935.6,286046998.1,N
1620558955.4,286046999.1,N
1620558975.3,286046998.4,N
1620558995.1,286047001.1,N
1620559015.8,286047001.1,N
1620559035.7,286047001.0,N
1620559055.5,286046998.9,N
1620559075.3,286046997.0,N
1620559095.2,286046995.0,Y
1620559115.0,286046995.0,P
1620559115.9,286046995.0,N
1620559135.8,286046995.6,N
1620559155.6,286046995.3,N
1620559175.4,286046996.2,N
1620559195.3,286046995.5,N
1620559215.1,286046993.8,Y
1620559235.9,286046998.5,P
1620559255.7,286046997.3,N
1620559275.5,286046995.4,P
1620559295.4,286046997.5,N
1620559315.2,286046999.0,N
1620559335.0,286046996.6,N
1620559335.9,286046996.6,N
1620559355.8,286046999.4,N
1620559375.6,286046998.8,N
1620559395.5,286046998.4,N
1620559415.3,286046998.5,N
1620559435.1,286046998.4,N
1620559455.9,286047000.8,N
1620559475.7,286046998.5,N
1620559495.5,286046998.7,N
1620559515.4,286047000.7,N
1620559535.2,286046998.2,N
1620559555.1,286046999.6,N
1620559556.0,286046999.6,N
1620559575.8,286046997.0,N
1620559595.6,286046997.3,N
1620559615.5,286046997.3,N
1620559635.3,286046996.7,N
1620559655.1,286046996.8,N
1620559675.9,286046996.7,N
1620559695.7,286046997.1,N
1620559715.6,286046997.2,N
1620559735.4,286046995.4,Y
1620559755.2,286046998.8,P
1620559775.1,286046998.1,P
1620559776.0,286046998.1,P
1620559795.8,286047000.7,N
1620559815.6,286046998.4,N
1620559835.5,286046998.6,N
1620559855.3,286047001.2,N
1620559875.2,286047001.0,N
1620559895.9,286046998.6,N
1620559915.7,286046998.4,N
1620559935.6,286046998.6,N
1620559955.4,286047001.2,N
1620559975.2,286046998.3,N
1620559995.1,286047001.0,N
1620559996.0,286047001.0,N
1620560015.8,286046998.8,N
1620560035.7,286046996.9,N
1620560055.5,286046999.2,N
1620560075.3,286046996.9,N
1620560095.2,286046999.6,N
1620560115.0,286046996.7,N
1620560115.9,286046996.7,N
1620560135.7,286046997.3,N
1620560155.6,286046997.3,N
1620560175.4,286046998.0,N
1620560195.3,286046997.9,N
1620560215.1,286046995.2,Y
1620560216.0,286046995.2,P
1620560235.8,286046996.8,N
1620560255.7,286046996.6,N
1620560275.5,286046999.4,N
1620560295.3,286046999.6,N
1620560315.2,286046998.2,N
1620560335.0,286046998.6,N
1620560335.9,286046998.6,N
1620560355.8,286047001.2,N
1620560375.6,286046998.4,N
1620560395.4,286046998.5,N
1620560415.3,286047000.8,N
1620560435.1,286047000.7,N
1620560455.8,286047001.2,N
1620560475.7,286047000.3,N
1620560495.5,286046999.9,N
1620560515.4,286047000.2,N
1620560535.2,286047000.1,N
1620560555.0,286047000.2,N
1620560555.9,286047000.2,N
1620560575.8,286046999.7,N
1620560595.6,286047002.8,N
1620560615.4,286047002.8,N
1620560635.3,286046999.8,N
1620560655.1,286046999.8,N
1620560675.9,286047000.8,N
1620560695.7,286047000.3,N
1620560715.5,286046998.1,N
1620560735.4,286046998.4,N
1620560755.2,286047000.0,N
1620560775.1,286047004.3,N
1620560776.0,286047004.3,N
1620560795.8,286047002.1,N
1620560815.6,286047002.0,N
1620560835.5,286047002.1,N
1620560855.3,286047000.1,N
1620560875.2,286046999.9,N
1620560895.9,286046999.9,N
1620560915.7,286047002.4,N
1620560935.6,286047004.4,N
1620560955.4,286047000.2,N
1620560975.3,286047000.2,N
1620560995.1,286047001.0,N
1620561015.8,286046999.8,N
1620561035.7,286047000.2,N
1620561055.5,286046998.1,N
1620561075.4,286047000.9,N
1620561095.2,286047000.3,N
1620561115.0,286047000.5,N
1620561115.9,286047000.5,N
1620561135.8,286047000.2,N
1620561155.6,286047000.2,N
1620561175.5,286046999.7,N
1620561195.3,286046999.9,N
1620561215.1,286047000.9,N
1620561235.9,286047000.0,N
1620561255.7,286047002.1,N
1620561275.6,286046999.9,N
1620561295.4,286047000.3,N
1620561315.2,286046999.8,N
1620561335.1,286046998.7,N
1620561336.0,286046998.7,N
1620561355.8,286047000.8,N
1620561375.6,286047000.7,N
1620561395.5,286047001.0,N
1620561415.3,286047001.0,N
1620561435.2,286047001.0,N
1620561455.9,286046999.8,N
1620561475.7,286047000.9,N
1620561495.6,286047000.0,N
1620561515.4,286046999.7,N
1620561535.2,286047000.2,N
1620561555.1,286047002.8,Y
1620561556.0,286047002.8,P
1620561575.8,286047002.3,N
1620561595.7,286047001.8,N
